GOES 3 [-]

Last updated on Oct. 25, 2020, 5:55 a.m. UTC

1 10953U 78062A   20298.75368831 -.00000112  00000-0  00000+0 0  9997
2 10953  11.4193 317.7496 0001223  25.5496  55.6931  0.99358013108113
UTC
Height (km)
Latitude
Longitude
Inclination
Orbital Period
UTC large
Height (km)
Speed (km/s)
/
Latitude / Longitude
Inclination (degrees)
Orbital Period (minutes)
Azimuth
Elevation
Range (km)
Doppler Factor
iOS Compass Heading
iOS Angle

Next 30 passes for location: Hong Kong

Rise time Rise Azimuth (degrees) Set time Set Azimuth (degrees) Duration Max altitude (degrees)

No matching passes for this satellites